Location: Rochester
(43.1610°N, 77.6109°W)
Time: 00:05:18
(UTC-04:00)

CUTE 1.7 + AOD 2 - Visible Passes

Search period start: 17 October 2021 00:00
Search period end: 27 October 2021 00:00
Orbit: 593 x 610 km, 97.6° (Epoch: 16 October)

Date Brightness Start Highest point End Pass type
(mag) Time Alt. Az. Time Alt. Az. Time Alt. Az.
17 Oct ? 04:15:24 10° ENE 04:17:41 14° E 04:19:49 10° ESE visible
17 Oct ? 05:49:34 10° N 05:53:46 53° WNW 05:56:35 19° SW visible
18 Oct ? 04:26:19 10° NE 04:29:22 19° E 04:31:18 14° SE visible
18 Oct ? 06:01:16 10° N 06:05:17 40° WNW 06:08:04 18° SW visible
19 Oct ? 04:37:29 10° NE 04:41:01 24° E 04:42:47 19° SE visible
19 Oct ? 06:13:00 10° N 06:16:46 30° WNW 06:19:33 15° WSW visible
20 Oct ? 04:48:46 10° NNE 04:52:39 32° E 04:54:16 24° SE visible
20 Oct ? 06:24:50 10° NNW 06:28:15 23° WNW 06:31:02 13° WSW visible
21 Oct ? 05:00:09 10° NNE 05:04:15 43° E 05:05:44 31° SE visible
21 Oct ? 06:36:45 10° NNW 06:39:42 18° WNW 06:42:30 11° WSW visible
22 Oct ? 05:11:36 10° NNE 05:15:51 59° E 05:17:12 39° SSE visible
22 Oct ? 06:48:51 10° NNW 06:51:07 14° WNW 06:53:24 10° W visible
23 Oct ? 05:23:07 10° NNE 05:27:25 80° E 05:28:38 46° S visible
23 Oct ? 07:01:24 10° NW 07:02:32 11° WNW 07:03:39 10° WNW visible
24 Oct ? 05:34:40 10° N 05:38:58 77° WNW 05:40:05 48° SSW visible
25 Oct ? 04:12:19 10° ENE 04:14:22 13° E 04:14:46 13° E visible
25 Oct ? 05:46:17 10° N 05:50:30 57° WNW 05:51:32 43° SW visible
26 Oct ? 04:23:09 10° NE 04:26:03 18° E 04:26:12 18° E visible
26 Oct ? 05:57:57 10° N 06:02:00 42° WNW 06:02:58 36° WSW visible
